Weather History for Hyannis, MA

Change the Weather History Date:

Monday, November 19, 2012

  Actual Average Record
Temperature  
Mean Temperature 44 °F -  
Max Temperature 52 °F 50 °F 65 °F (1978)
Min Temperature 37 °F 33 °F 13 °F (1936)
Degree Days  
Heating Degree Days 20    
Moisture  
Dew Point 41 °F    
Average Humidity 85    
Maximum Humidity 93    
Minimum Humidity 69    
Precipitation  
Precipitation 0.00 in - - ()
Sea Level Pressure  
Sea Level Pressure 30.40 in    
Wind  
Wind Speed 5 mph (NNE)    
Max Wind Speed 12 mph    
Max Gust Speed -    
Visibility 10 miles    
Events      
Averages and records for this station are not official NWS values.
T = Trace of Precipitation, MM = Missing Value Source: NWS Daily Summary

Daily Weather History Graph

Daily Weather History Graph

Search for Another Location

Airport:

Trip Planner

Search our weather history database for the weather conditions in past years. The results will help you decide how hot, cold, wet, or windy it might be!

Date:

Astronomy

Nov. 19, 2012 Rise Set
Actual Time 6:35 AM EST 4:17 PM EST
Civil Twilight 6:05 AM EST 4:47 PM EST
Nautical Twilight 5:31 AM EST 5:21 PM EST
Astronomical Twilight 4:58 AM EST 5:54 PM EST
Moon 11:34 AM EST 10:43 PM EST
Length of Visible Light 10h 42m
Length of Day
9h 41m
Waxing Crescent, 40% of the Moon is Illuminated
Nov 19
Waxing Crescent
Nov 20
First Quarter
Nov 28
Full
Dec 6
Last Quarter
Dec 13
New

Hourly Weather History & Observations

Time (EST) Temp. Windchill Dew Point Humidity Pressure Visibility Wind Dir Wind Speed Gust Speed Precip Events Conditions
12:33 AM 37.4 °F - 35.6 °F 93% 30.57 in 10.0 mi Calm Calm - N/A   Scattered Clouds
12:56 AM 37.0 °F - 35.1 °F 93% 30.57 in 10.0 mi Calm Calm - N/A   Mostly Cloudy
1:56 AM 43.0 °F 40.3 °F 37.9 °F 82% 30.56 in 10.0 mi NE 4.6 mph - N/A   Overcast
2:56 AM 42.1 °F 38.4 °F 37.0 °F 82% 30.53 in 10.0 mi NNE 5.8 mph - N/A   Scattered Clouds
3:56 AM 42.1 °F 39.2 °F 37.9 °F 85% 30.51 in 10.0 mi NNE 4.6 mph - N/A   Clear
4:56 AM 39.0 °F 35.7 °F 36.0 °F 89% 30.51 in 10.0 mi North 4.6 mph - N/A   Clear
5:56 AM 39.9 °F 37.8 °F 37.9 °F 93% 30.49 in 10.0 mi NE 3.5 mph - N/A   Scattered Clouds
6:56 AM 44.1 °F 41.5 °F 42.1 °F 93% 30.50 in 10.0 mi ENE 4.6 mph - N/A   Overcast
7:56 AM 46.0 °F 42.5 °F 42.1 °F 86% 30.48 in 10.0 mi NE 6.9 mph - N/A   Mostly Cloudy
8:56 AM 48.9 °F - 44.1 °F 83% 30.47 in 10.0 mi NNE 8.1 mph - N/A   Overcast
9:56 AM 50.0 °F - 43.0 °F 77% 30.46 in 10.0 mi NE 10.4 mph - N/A   Overcast
10:56 AM 51.1 °F - 43.0 °F 74% 30.42 in 10.0 mi NE 10.4 mph - N/A   Overcast
11:56 AM 52.0 °F - 42.1 °F 69% 30.40 in 10.0 mi NE 9.2 mph - N/A   Overcast
12:56 PM 50.0 °F - 42.1 °F 74% 30.38 in 10.0 mi NNE 11.5 mph - N/A   Overcast
1:56 PM 48.9 °F - 43.0 °F 80% 30.37 in 10.0 mi NE 11.5 mph - N/A   Overcast
2:56 PM 48.9 °F - 42.1 °F 77% 30.36 in 10.0 mi NE 8.1 mph - N/A   Overcast
3:56 PM 48.0 °F - 42.1 °F 80% 30.35 in 10.0 mi NE 10.4 mph - N/A   Overcast
4:56 PM 48.0 °F - 42.1 °F 80% 30.33 in 10.0 mi NE 9.2 mph - N/A   Overcast
5:56 PM 46.0 °F 42.5 °F 42.1 °F 86% 30.33 in 10.0 mi NE 6.9 mph - N/A   Mostly Cloudy
6:35 PM 44.6 °F 40.7 °F 42.8 °F 93% 30.31 in 10.0 mi NNE 6.9 mph - N/A   Scattered Clouds
6:56 PM 45.0 °F 41.8 °F 42.1 °F 90% 30.30 in 10.0 mi NNE 5.8 mph - N/A   Clear
7:56 PM 44.1 °F 41.5 °F 41.0 °F 89% 30.28 in 10.0 mi NNE 4.6 mph - N/A   Clear
8:16 PM 44.6 °F 42.2 °F 42.8 °F 93% 30.28 in 10.0 mi NNE 4.6 mph - N/A   Mostly Cloudy
8:56 PM 46.0 °F 43.1 °F 44.1 °F 93% 30.27 in 10.0 mi NNE 5.8 mph - N/A   Overcast
9:56 PM 46.9 °F - 43.0 °F 86% 30.25 in 10.0 mi NNE 3.5 mph - N/A   Overcast
10:56 PM 46.9 °F - 42.1 °F 83% 30.24 in 10.0 mi North 6.9 mph - N/A   Overcast
11:56 PM 46.0 °F 43.1 °F 41.0 °F 83% 30.22 in 10.0 mi North 5.8 mph - N/A   Overcast